Regional Weather Roundup
Issued by NWS

Home | Current Version | Previous Version | Graphics & Text | Print | Product List | Glossary On
Versions: 1 2 3 4 5 6 7 8 9 10 11 12 13 14 15 16 17 18 19 20 21 22 23 24 25 26 27 28 29 30 31 32 33 34 35 36 37 38 39 40 41 42 43 44 45 46 47 48 49 50
181
ASUS43 KMPX 170210
RWRMN
WEATHER ROUNDUP FOR MINNESOTA
NATIONAL WEATHER SERVICE TWIN CITIES/CHANHASSEN MN
800 PM CST SAT DEC 16 2017


NOTE: "FAIR" INDICATES FEW OR NO CLOUDS BELOW 12,000 FEET WITH NO
SIGNIFICANT WEATHER AND/OR OBSTRUCTIONS TO VISIBILITY. N/A MEANS
CURRENT SKY AND/OR WEATHER CONDITIONS ARE NOT AVAILABLE.

MNZ060>063-068>070-170300-
   Twin Cities Metro

CITY           SKY/WX    TMP DP  RH WIND       PRES   REMARKS
TWIN CITIES    CLOUDY    26  20  77 NE6       30.08R WCI  19
ST PAUL        MOCLDY    25  18  74 NE5       30.10R WCI  19
CRYSTAL        CLOUDY    26  18  71 E6        30.07R WCI  19
BLAINE         CLOUDY    27  21  80 NE3       30.07R
LAKEVILLE        N/A     21  19  93 NE3       30.07R
EDEN PRAIRIE   CLOUDY    28  21  75 E7        30.07R WCI  21
SOUTH ST PAUL  PTCLDY    26  19  76 CALM      30.09R
LAKE ELMO      MOCLDY    25  19  80 NE3       30.09R
$$
MNZ001>005-007-008-013>017-022>024-027-028-170300-
   Northwest Minnesota

CITY           SKY/WX    TMP DP  RH WIND       PRES   REMARKS
BEMIDJI        CLOUDY    24  22  93 S5        30.01R WCI  18
HALLOCK        CLOUDY    12  10  92 S10       30.01S FOG     WCI  -1
ROSEAU         CLOUDY    19  16  86 SW7       30.02R FOG     WCI  10
WARROAD        CLOUDY    18  12  79 CALM      30.01R
THIEF RVR FALL FOG       19  17  92 CALM      30.04R VSB 1/4
CROOKSTON      FOG       18  18 100 S3        30.05R VSB 1/2
FOSSTON        CLOUDY    21  21 100 CALM      30.03R
DETROIT LAKES  CLOUDY    28  27  93 NW5       30.04R WCI  23
MOORHEAD       FOG       23  21  93 CALM      30.05S VSB 3/4
PARK RAPIDS    CLOUDY    25  22  88 S3        30.02R
MAHNOMEN       CLOUDY    26  23  91 CALM      30.04R
$$
MNZ006-009>011-018-025>026-170300-
   North Central Minnesota

CITY           SKY/WX    TMP DP  RH WIND       PRES   REMARKS
BAUDETTE       CLOUDY    14  13  95 SE6       30.00S FOG     WCI   5
FLAG ISLAND    CLOUDY    12  10  92 S7        30.00R WCI   2
INTL FALLS     CLOUDY    14  11  87 SE5       30.03R FOG     WCI   6
WASKISH        CLOUDY    21  19  93 CALM      30.01S
BIG FORK       CLOUDY    21  18  86 CALM      30.03R
LONGVILLE      CLOUDY    21  16  79 CALM      30.04R
GRAND RAPIDS   CLOUDY    20  15  81 S9        30.05R WCI   9
CRANE LAKE     CLOUDY    14  12  92 CALM      30.06S
ORR            CLOUDY    18  12  79 CALM      30.01R
COOK           CLOUDY    21  18  86 S5        30.03S WCI  15
WALKER         CLOUDY    23  19  86 S3        30.03R
$$
MNZ012-019>021-037-170300-
   Northeast Minnesota

CITY           SKY/WX    TMP DP  RH WIND       PRES   REMARKS
DULUTH         CLOUDY    19  14  81 S9        30.04S WCI   8
ELY            CLOUDY    21  16  79 S6        30.03S WCI  14
HIBBING        CLOUDY    20  16  84 S5        30.04R WCI  13
EVELETH        CLOUDY    20  13  75 CALM      30.05R
DULUTH HARBOR  CLOUDY    23  16  74 SE7       30.12R WCI  15
TWO HARBORS    CLOUDY    27  19  74 E5        30.05S WCI  21
SILVER BAY     CLOUDY    25  19  80 E3        30.05F
GRAND MARAIS     N/A     24  18  77 NE5       30.13R WCI  18
G MARAIS ARPRT CLOUDY    16  12  86 CALM      30.05R
$$
MNZ029>031-032-039>041-046>048-054>057-064-170300-
   West Central Minnesota

CITY           SKY/WX    TMP DP  RH WIND       PRES   REMARKS
FERGUS FALLS   CLOUDY    27  27 100 CALM      30.07R
WHEATON        CLOUDY    28  27  93 NE3       30.07S FOG
MORRIS         CLOUDY    28  27  93 E3        30.04S
ALEXANDRIA     CLOUDY    27  25  92 S7        30.05R WCI  19
ELBOW LAKE     CLOUDY    26  26  97 CALM      30.06R FOG
WADENA         CLOUDY    25  21  86 CALM      30.03R
GLENWOOD       CLOUDY    27  27 100 CALM      30.05R
APPLETON       CLOUDY    30  27  86 E5        30.06R WCI  25
BENSON         CLOUDY    30  27  86 CALM      30.07R
ORTONVILLE     CLOUDY    28  27  93 CALM      30.05R
MADISON        CLOUDY    32  28  86 CALM      30.07R
WILLMAR        CLOUDY    28  27  93 E8        30.06S WCI  20
$$
MNZ033>034-036-042>043-049>051-058-059-170300-
   Central Minnesota

CITY           SKY/WX    TMP DP  RH WIND       PRES   REMARKS
ST CLOUD       CLOUDY    24  20  84 CALM      30.08R
SAUK CENTRE    CLOUDY    25  23  94 CALM      30.06R
PAYNESVILLE    CLOUDY    26  25  96 E5        30.07R FOG     WCI  20
AITKIN         CLOUDY    19  16  86 CALM      30.05R
PINE RIVER     CLOUDY    21  18  86 SE3       30.07R
BRAINERD       CLOUDY    22  18  85 CALM      30.06R
STAPLES        CLOUDY    23  19  86 CALM      30.04R
LITTLE FALLS   CLOUDY    27  19  74 CALM      30.07R
LITCHFIELD     MOCLDY    27  25  93 NE3       30.07R
BUFFALO        CLOUDY    26  22  85 NE5       30.08R WCI  20
MAPLE LAKE     CLOUDY    26  23  89 CALM      30.08R
HUTCHINSON     CLOUDY    28  25  88 NE7       30.07R WCI  21
$$
MNZ037-044-045-052-053-170300-
   East Central Minnesota

CITY           SKY/WX    TMP DP  RH WIND       PRES   REMARKS
PRINCETON      CLOUDY    25  18  74 CALM      30.08R
MORA           CLOUDY    21  16  79 CALM      30.10R
CAMBRIDGE      CLOUDY    23  16  74 CALM      30.09R
RUSH CITY      CLOUDY    21  16  79 CALM      30.10R
MOOSE LAKE     CLOUDY    21  14  73 CALM      30.06R
HINCKLEY       CLOUDY    23  18  80 CALM      30.08R
CLOQUET        CLOUDY    19  10  68 CALM      30.06R
MCGREGOR       CLOUDY    23  16  74 SE5       30.06R WCI  17
$$
MNZ071>073-080-081-089-090-097-098-170300-
   Southwest Minnesota

CITY           SKY/WX    TMP DP  RH WIND       PRES   REMARKS
MONTEVIDEO     PTCLDY    28  25  86 E3        30.06R
GRANITE FALLS  CLOUDY    30  27  88 E3        30.08R
CANBY          CLOUDY    32  29  90 CALM      30.07R
MARSHALL       CLOUDY    29  26  89 NE3       30.07R
REDWOOD FALLS  CLOUDY    28  25  88 E3        30.06R
OLIVIA         CLOUDY    30  28  93 NE5       30.05R WCI  25
PIPESTONE      CLOUDY    30  27  86 NE5       30.01R WCI  25
WINDOM           N/A     28  18  64 NE5       30.04R HAZE    WCI  23
WORTHINGTON    CLOUDY    26  24  92 N7        30.03R WCI  18
JACKSON        CLOUDY    25  23  93 N7        30.03R FOG     WCI  17
SLAYTON        CLOUDY    29  28  94 NE3       30.04R
$$
MNZ065>067-074>077-082>085-091>093-170300-
   South Central Minnesota

CITY           SKY/WX    TMP DP  RH WIND       PRES   REMARKS
MANKATO        CLOUDY    28  25  88 NE6       30.06R FOG     WCI  22
NEW ULM        CLOUDY    28  25  86 N5        30.06R WCI  23
ST JAMES       CLOUDY    27  27 100 N6        30.06R WCI  20
FAIRMONT       CLOUDY    27  25  92 NE7       30.05R WCI  19
GLENCOE        CLOUDY    29  29 100 E6        30.06R WCI  23
FARIBAULT      CLOUDY    28  25  86 N3        30.06R
OWATONNA       CLOUDY    27  25  93 NE5       30.04R WCI  21
WASECA         CLOUDY    30  28  93 NE6       30.06R WCI  24
ALBERT LEA     CLOUDY    28  27  93 NE6       30.03R WCI  22
$$
MNZ078>079-086>088-094>096-170300-
   Southeast Minnesota

CITY           SKY/WX    TMP DP  RH WIND       PRES   REMARKS
ROCHESTER      CLOUDY    24  22  91 E6        30.03R WCI  17
RED WING       PTCLDY    25  16  68 E3        30.07R
STANTON        CLOUDY    25  21  86 NE3       30.05R
DODGE CENTER   CLOUDY    25  21  86 NE5       30.03R WCI  19
WINONA         MOCLDY    28  23  80 SE5       30.08R WCI  23
AUSTIN         PTCLDY    27  25  93 NE5       30.03R WCI  21
PRESTON        CLOUDY    25  21  85 NE3       30.04R
$$
ABBREVIATIONS USED IN REMARKS
   TC - TEMPERATURES IN CELSIUS
  WCI - WIND CHILL INDEX
   HX - HEAT INDEX
  VSB - VISIBILITY
$$




USA.gov is the U.S. government's official web portal to all federal, state and local government web resources and services.